Regional Weather Roundup
Issued by NWS

Home | Current Version | Previous Version | Graphics & Text | Print | Product List | Glossary On
Versions: 1 2 3 4 5 6 7 8 9 10 11 12 13 14 15 16 17 18 19 20 21 22 23 24 25 26 27 28 29 30 31 32 33 34 35 36 37 38 39 40 41 42 43 44 45 46 47 48 49 50
000
ASUS43 KTOP 180408
RWRKS

WEATHER ROUNDUP FOR KANSAS
NATIONAL WEATHER SERVICE GOODLAND KS
1000 PM CST SUN DEC 17 2017

NOTE:  "FAIR" INDICATES FEW OR NO CLOUDS BELOW 12,000 FEET WITH NO
SIGNIFICANT WEATHER AND/OR OBSTRUCTIONS TO VISIBILITY.

KSZ001>006-013>018-027>032-041>047-180500-
NORTHWEST KANSAS

CITY           SKY/WX    TMP DP  RH WIND       PRES   REMARKS
GOODLAND       CLOUDY    23  20  88 SW8       30.00R
HAYS           CLOUDY    28  25  88 NW6       30.04S
HILL CITY      CLOUDY    24  21  88 SW3       30.03F
RUSSELL        CLOUDY    31  28  89 NW6       30.03S
$$

KSZ061>065-074>080-084>089-180500-
SOUTHWEST KANSAS

CITY           SKY/WX    TMP DP  RH WIND       PRES   REMARKS
DODGE CITY     CLOUDY    26  21  81 NW7       30.04R
ELKHART        CLOUDY    29  26  90 SW10      30.02S WCI  20
GARDEN CITY    CLOUDY    28  23  81 CALM      30.03S
GREAT BEND     CLOUDY    26  22  84 NW8       30.05R
LIBERAL        CLOUDY    23  19  85 SW6       30.05R
PRATT          CLOUDY    30  25  81 W6        30.04S
$$

KSZ066>073-081>083-090>101-180500-
SOUTHEAST KANSAS

CITY           SKY/WX    TMP DP  RH WIND       PRES   REMARKS
CHANUTE        CLOUDY    45  43  93 S7        30.06S FOG
COFFEYVILLE    CLOUDY    45  44  97 S5        30.07F
HUTCHINSON     CLEAR     32  31  96 NW7       30.03R
MEDICINE LODGE   N/A     33  31  92 CALM      30.04R
NEWTON         CLEAR     36  35  96 SW7       30.04R
PARSONS        CLOUDY    44  44 100 S3        30.07F
WICHITA INTL   CLEAR     35  34  96 SW5       30.04R
WICHITA JABRA  CLEAR     40  38  93 SW8       30.04R
WICHITA MCCONL CLEAR     39  36  88 SW7       30.04R
WINFIELD       CLOUDY    44  43  96 S7        30.06S
$$

KSZ007>012-019>026-033>040-048>060-102>105-180500-
NORTHEAST KANSAS

CITY           SKY/WX    TMP DP  RH WIND       PRES   REMARKS
CONCORDIA      CLEAR     31  27  85 W5        30.02S
EMPORIA        CLOUDY    44  39  82 SW6       30.02F
LAWRENCE       PTCLDY    44  42  93 S12       30.03R
MANHATTAN      CLOUDY    43  36  76 CALM      30.03R
MARYSVILLE     CLOUDY    34  32  93 CALM      30.01S FOG
OLATHE IND     MOCLDY    40  40 100 SW5       30.04S FOG
OLATHE EXE     MOCLDY    39  39 100 S3        30.04R FOG
SALINA         CLEAR     36  29  75 NW5       30.05R
TOPEKA BILLARD CLOUDY    46  42  86 SW12      30.01S
TOPEKA FORBES  CLOUDY    45  42  89 SW8       30.02R
$$



USA.gov is the U.S. government's official web portal to all federal, state and local government web resources and services.